Wed, 18 May 2022 16:37:45 UTC

Information for RPM ethtool-6-2.20090115git.fc9.ppc64.rpm

ID952401
Nameethtool
Version6
Release2.20090115git.fc9
Epoch
Archppc64
SummaryEthernet settings tool for PCI ethernet cards
DescriptionThis utility allows querying and changing settings such as speed, port, autonegotiation, PCI locations and checksum offload on many network devices, especially of ethernet devices.
Build Time2009-01-17 13:31:38 GMT
Size91.08 KB
cf0e06120df299bae02767e9e4adcf6f
LicenseGPLv2
Buildrootdist-f9-build-329649-60313
Provides
ethtool = 6-2.20090115git.fc9
Obsoletes No Obsoletes
Conflicts No Conflicts
Requires
libc.so.6()(64bit)
libc.so.6(GLIBC_2.3)(64bit)
libc.so.6(GLIBC_2.3.4)(64bit)
libc.so.6(GLIBC_2.4)(64bit)
rpmlib(CompressedFileNames) <= 3.0.4-1
rpmlib(PayloadFilesHavePrefix) <= 4.0-1
rtld(GNU_HASH)
Recommends No Recommends
Suggests No Suggests
Supplements No Supplements
Enhances No Enhances
Files
1 through 11 of 11
Name ascending sort Size
/sbin/ethtool180.48 KB
/usr/sbin/ethtool18.00 B
/usr/share/doc/ethtool-64.00 KB
/usr/share/doc/ethtool-6/AUTHORS267.00 B
/usr/share/doc/ethtool-6/COPYING17.57 KB
/usr/share/doc/ethtool-6/ChangeLog.git22.98 KB
/usr/share/doc/ethtool-6/ChangeLog.old11.12 KB
/usr/share/doc/ethtool-6/LICENSE100.00 B
/usr/share/doc/ethtool-6/NEWS3.85 KB
/usr/share/doc/ethtool-6/README127.00 B
/usr/share/man/man8/ethtool.8.gz3.50 KB
Component of
Page:
1 through 50 of 726 >>>
Buildroot descending sort Created State
dist-f9-build-502409-77934 2009-07-14 22:53:45 expired
dist-f9-build-498079-77934 2009-07-09 21:00:38 expired
dist-f9-build-496872-77934 2009-07-08 07:13:08 expired
dist-f9-build-496169-77787 2009-07-07 13:50:33 expired
dist-f9-build-496063-77787 2009-07-07 10:42:55 expired
dist-f9-build-495473-77787 2009-07-06 17:43:53 expired
dist-f9-build-494942-77787 2009-07-06 06:49:13 expired
dist-f9-build-494424-77588 2009-07-05 10:58:13 expired
dist-f9-build-494186-77588 2009-07-04 16:57:28 expired
dist-f9-build-494049-77588 2009-07-04 10:10:56 expired
dist-f9-build-492465-77356 2009-07-02 13:54:35 expired
dist-f9-build-491914-77310 2009-07-01 22:19:40 expired
dist-f9-build-490673-77156 2009-06-30 23:06:08 expired
dist-f9-build-489452-77094 2009-06-29 19:39:03 expired
dist-f9-build-488591-77019 2009-06-29 00:43:22 expired
dist-f9-build-488526-77019 2009-06-28 22:50:58 expired
dist-f9-build-487915-76903 2009-06-27 15:25:11 expired
dist-f9-build-486568-76596 2009-06-25 04:25:51 expired
dist-f9-build-486246-76492 2009-06-24 17:50:47 expired
dist-f9-build-486167-76492 2009-06-24 15:50:25 expired
dist-f9-build-486161-76492 2009-06-24 15:35:38 expired
dist-f9-build-486151-76492 2009-06-24 15:20:48 expired
dist-f9-build-486096-76492 2009-06-24 14:20:35 expired
dist-f9-build-486058-76492 2009-06-24 13:35:40 expired
dist-f9-build-486040-76492 2009-06-24 13:05:51 expired
dist-f9-build-486037-76492 2009-06-24 12:50:55 expired
dist-f9-build-485963-76492 2009-06-24 11:50:53 expired
dist-f9-build-484893-76331 2009-06-22 21:17:50 expired
dist-f9-build-484601-76331 2009-06-22 16:00:20 expired
dist-f9-build-483496-76224 2009-06-21 03:51:44 expired
dist-f9-build-482443-76099 2009-06-19 13:37:30 expired
dist-f9-build-479573-75923 2009-06-16 12:03:20 expired
dist-f9-build-479393-75923 2009-06-16 09:45:51 expired
dist-f9-build-479154-75897 2009-06-16 04:02:36 expired
dist-f9-build-479115-75897 2009-06-16 03:49:29 expired
dist-f9-build-479103-75897 2009-06-16 03:46:40 expired
dist-f9-build-479094-75897 2009-06-16 03:43:55 expired
dist-f9-build-479086-75897 2009-06-16 03:39:56 expired
dist-f9-build-479016-75897 2009-06-16 03:31:57 expired
dist-f9-build-478969-75897 2009-06-16 03:26:50 expired
dist-f9-build-478962-75897 2009-06-16 03:24:26 expired
dist-f9-build-478904-75897 2009-06-16 03:16:52 expired
dist-f9-build-478895-75897 2009-06-16 03:15:42 expired
dist-f9-build-478840-75897 2009-06-16 03:09:00 expired
dist-f9-build-478808-75897 2009-06-16 03:04:36 expired
dist-f9-build-478774-75897 2009-06-16 02:59:12 expired
dist-f9-build-478748-75897 2009-06-16 02:55:32 expired
dist-f9-build-478710-75897 2009-06-16 02:49:28 expired
dist-f9-build-478707-75897 2009-06-16 02:48:41 expired
dist-f9-build-478663-75897 2009-06-16 02:43:28 expired